Details for FedEx at KMIA




Go Back


Latest METAR
Local Time

KMIA 240653Z 12006KT 8SM -RA SCT016 BKN034 BKN060 OVC250 25/24 A3003 RMK AO2 RAB44 SLP170 P0000 T02500239 $

24/05/2018, 03:42:24

Description
Results
FedEx Logo
Number of Pilots based at KMIA
0 Pilots Based here
Number of FedEx Flights Departed from KMIA
0 Flights Departed
Number of FedEx Flights Arrived at KMIA
0 Flights Arrived
Number of FedEx Schedules Departing from KMIA
23 Schedules
Number of FedEx Schedules Arriving at KMIA
23 Schedules
Number of FedEx Schedules Departing from KMIA availible today
1 Schedules Today
Number of FedEx Schedules Arriving at KMIA availible today
0 Schedules Today
Average Landing Rate at KMIA
-207 fpm
FedEx Average Landing Rate at KMIA
0 fpm
Total Fuel Purchased at KMIA by FedEx
0.00 kgs / 0.00 lbs

Pilots Based at KMIA


Pilot ID
Pilot Name
Pilot Rank
No. of Flights
No. of Flying Hours
There are no pilots assigned to this hub!   Will you be the first?
Content